STARLINK-2534, 48311

Orbit data source: Space-Track

STARLINK-2534, 48311 is a payload satellite owned by SpaceX/Seattle (US) in LEO that was launched on Thu, 29 Apr 2021 UTC via an FALCON 9 launch vehicle from the Air Force Eastern Test Range (AFETR). Payload-class satellites include a variety of spacecraft equipped with specific instruments for various scientific and technological missions. These include communications satellites like Starlink; space stations such as the ISS; scientific satellites like the Hubble; Earth observation satellites from companies like Planet Labs, Umbra, and HawkEye 360; GPS; miniature CubeSats for education and research; and military/defense satellites.

Loading next visibility...
Identifier
48311, 2021-036AM
Orbit
LEO
Country
Flag of USUS
Related business
Manufacturer
SpaceX/Seattle
Mission
Operational Commercial Communications
Bus & Motor
STARLINK, Unknown motor
Mass
260 kg wet, ~248 kg dry
Launch date (UTC)
2021-04-29 (5 years ago)
Launch vehicle
FALCON 9
Launch site
Air Force Eastern Test Range (AFETR)
Object type
Payload
Rocket body
Debris
Shape & HBR
Box + 1 Pan, 10.1 m
Radar Cross Section
13.562 m², Large (>1 m²)

Expand to show TLE details & history
Last TLE update: 23 hours ago

TLE from 23 hours ago
0 STARLINK-2534
1 48311U 21036AM  25303.25172829 -.00000709  00000-0 -28686-4 0  9990
2 48311  53.0555 317.1743 0001791  98.6740 261.4452 15.06394238248515
Epoch: 2025-10-30T06:02Z
TLE epoch observation values (Epoch: 2025-10-30T06:02:29.324Z)
Latitude
-0.00001°
Longitude
-172.26108°
Altitude
548.293 km
Speed
7.589 km/s
True Right ascension
21h 08m 41s
True Declination
0° 00' 00"
Sunlit
Object was in daylight at epoch
Visualization orbit readout
Latitude
Unknown
Longitude
Unknown
Altitude
Unknown
Speed
Unknown
Apparent Right ascension
Unknown
Apparent Declination
Unknown
Sunlit
N/A
Visualization observer readout
Local Sidereal Time
00:35:04
Azimuth
Unknown
Elevation
Unknown
Doppler factor
Unknown
Orbital elements
Apogee altitude
548.74 km
Perigee altitude
546.259 km
Semi-major axis
6,925.637 km
Eccentricity
0.00018
Inclination
53.0555°
RAAN
317.1743°
Arg. of periapsis
98.674°
True anomaly
261.42491°
Mean anomaly
261.4452°
Eccentric anomaly
261.43505°
Mean motion
3.76577 °/min
Orbital period
95.6 mins
BSTAR
-0.000028686
Loading maneuver chart data...
Computing Atmospheric mass density...
Loading historical data...
Loading historical data...
Loading historical data...
Loading historical data...
Loading historical data...
Loading historical data...
Loading historical data...

Documentation

Showing up to 5 results
|